VYMD

Mandalay International Airport

Airport
ICAO code
VYMD
IATA Code
MDL
Summary
ICAO Region
APAC
ICAO Territory
Location

Tada-U, Mandalay Region

Serving
Mandalay
Elevation
299 ft
Coordinates
21° 56' 27" N , 96° 5' 24" E
KCC
Metar
VYMD 151230Z 18008KT 6000 BKN020 FEW025CB SCT120 29/26 Q1001

Mandalay International Airport, located 35 km south of Mandalay in Tada-U, Myanmar.

Climatology

Tropical Savanna climate (Köppen climate classification Aw)

Airport map

Aerial View

SKYbrary Partners:

Safety knowledge contributed by: